Syracuse, NY

12:20 AM EST on December 10, 2019 (GMT -0500)
Syracuse Hancock International

Weather History for KSYR - November, 2019

Change the Weather History Date:

Saturday, November 16, 2019

  Actual Average Record
Temperature  
Mean Temperature 24 °F 41 °F  
Max Temperature 32 °F 48 °F 71 °F (1990)
Min Temperature 17 °F 33 °F 6 °F (1933)
Degree Days  
Heating Degree Days 40 24  
Month to date heating degree days 476 350  
Since 1 July heating degree days 911 967  
Cooling Degree Days 0 0  
Month to date cooling degree days 0 0  
Year to date cooling degree days 622 569  
Moisture  
Dew Point 9 °F    
Average Humidity 53    
Maximum Humidity 68    
Minimum Humidity 33    
Precipitation  
Precipitation 0.00 in 0.12 in 1.75 in (1926)
Month to date precipitation 0.86 1.87  
Year to date precipitation 41.87 33.59  
Snow  
Snow 0.00 in 0.20 in 8.30 in (2018)
Month to date snowfall 6.6 3.0  
Since 1 July snowfall 6.6 3.4  
Since 1 September snowfall 6.6 3.4  
Snow Depth 1.0 in    
Sea Level Pressure  
Sea Level Pressure 30.53 in    
Wind  
Wind Speed 5 mph ()    
Max Wind Speed 15 mph    
Max Gust Speed 20 mph    
Visibility 10.0 miles    
Events      
T = Trace of Precipitation, MM = Missing Value Source: Averaged Metar Reports

Daily Weather History Graph

Daily Weather History Graph

Search for Another Location

Airport or City:

Astronomy

Nov. 16, 2019 Rise Set
Actual Time 6:58 AM EST 4:39 PM EST
Civil Twilight 6:27 AM EST 5:10 PM EST
Nautical Twilight 5:52 AM EST 5:44 PM EST
Astronomical Twilight 5:19 AM EST 6:18 PM EST
Moon 8:07 PM EST (11/16) 10:52 AM EST (11/16)
Length of Visible Light 10h 43m
Length of Day
9h 41m
Waning Gibbous, 82% of the Moon is Illuminated
Nov 16
Waning Gibbous
Nov 19
Last Quarter
Nov 26
New
Dec 4
First Quarter
Dec 12
Full

Hourly Weather History & Observations

Time (EST) Temp. Windchill Dew Point Humidity Pressure Visibility Wind Dir Wind Speed Gust Speed Precip Events Conditions
12:54 AM 27.0 °F 18.0 °F 12.0 °F 53% 30.43 in 10.0 mi North 9.2 mph - N/A   Clear
1:54 AM 24.1 °F 15.2 °F 10.0 °F 55% 30.45 in 10.0 mi North 8.1 mph - N/A   Clear
3:54 AM 21.0 °F 11.4 °F 8.1 °F 57% 30.48 in 10.0 mi North 8.1 mph - N/A   Partly Cloudy
4:54 AM 19.0 °F 11.1 °F 8.1 °F 62% 30.51 in 10.0 mi North 5.8 mph - N/A   Partly Cloudy
5:54 AM 18.0 °F 9.8 °F 7.0 °F 62% 30.53 in 10.0 mi North 5.8 mph - N/A   Partly Cloudy
6:54 AM 18.0 °F 11.1 °F 7.0 °F 62% 30.56 in 10.0 mi NE 4.6 mph - N/A   Clear
7:54 AM 19.0 °F 12.3 °F 7.0 °F 59% 30.58 in 10.0 mi NE 4.6 mph - N/A   Clear
8:54 AM 21.9 °F 15.7 °F 8.1 °F 55% 30.60 in 10.0 mi NE 4.6 mph - N/A   Clear
9:54 AM 24.1 °F 17.0 °F 7.0 °F 48% 30.61 in 10.0 mi Variable 5.8 mph - N/A   Partly Cloudy
10:54 AM 26.1 °F 17.6 °F 9.0 °F 49% 30.61 in 10.0 mi NNE 8.1 mph - N/A   Partly Cloudy
11:54 AM 27.0 °F 18.7 °F 8.1 °F 45% 30.58 in 10.0 mi NE 8.1 mph - N/A   Partly Cloudy
12:54 PM 28.9 °F 21.9 °F 8.1 °F 41% 30.56 in 10.0 mi NE 6.9 mph - N/A   Partly Cloudy
1:54 PM 30.0 °F 22.4 °F 7.0 °F 38% 30.53 in 10.0 mi ENE 8.1 mph - N/A   Partly Cloudy
2:54 PM 32.0 °F 26.4 °F 7.0 °F 35% 30.52 in 10.0 mi NNE 5.8 mph - N/A   Clear
3:54 PM 30.9 °F 26.2 °F 8.1 °F 38% 30.52 in 10.0 mi North 4.6 mph - N/A   Partly Cloudy
4:54 PM 27.0 °F 21.6 °F 9.0 °F 47% 30.52 in 10.0 mi North 4.6 mph - N/A   Partly Cloudy
5:54 PM 26.1 °F 20.5 °F 10.9 °F 53% 30.53 in 10.0 mi North 4.6 mph - N/A   Partly Cloudy
6:54 PM 24.1 °F - 10.9 °F 57% 30.53 in 10.0 mi Calm Calm - N/A   Partly Cloudy
7:54 PM 23.0 °F 18.4 °F 10.0 °F 58% 30.53 in 10.0 mi North 3.5 mph - N/A   Partly Cloudy
8:54 PM 21.9 °F - 12.9 °F 68% 30.52 in 10.0 mi Calm Calm - N/A   Mostly Cloudy
9:54 PM 21.0 °F 14.6 °F 10.9 °F 65% 30.49 in 10.0 mi East 4.6 mph - N/A   Mostly Cloudy
10:54 PM 21.0 °F 13.4 °F 8.1 °F 57% 30.47 in 10.0 mi East 5.8 mph - N/A   Mostly Cloudy
11:54 PM 19.9 °F 13.4 °F 9.0 °F 62% 30.46 in 10.0 mi ESE 4.6 mph - N/A   Scattered Clouds